[[{"header":{"parameterUnit":"m.s-1","parameterCategory":1,"la1":30.2991,"la2":30.254,"lo1":-89.0895,"lo2":-89.0444,"dy":0.0017,"dx":0.0017,"nx":28,"ny":28,"refTime":"2025-12-12T09:00:00:Z","depth":0,"parameterNumber":2,"parameterNumberName":"U-component_of_WINDS"},"data":[0,0,0,0,0,0,0,0,0,0,0,0,0,0,0,0,0,0,0,0,0,0,0,0,0,0,0,0,0,0,0,0,0,0,0,0,0,0,0,0,0,0,0,0,0,0,0,0,0,0,0,0,0,0,0,0,0,0,-2.1281,-2.1281,0,-2.1327,-2.1328,-2.1328,-2.1287,-2.1285,-2.1284,-2.1282,-2.1331,-2.1333,-2.1336,0,0,0,0,0,0,0,0,0,0,0,0,0,-2.1159,-2.1162,-2.1281,-2.1281,-2.1282,-2.1327,-2.1328,-2.1328,-2.1287,-2.1285,-2.1283,-2.1281,-2.133,-2.1333,-2.1337,0,0,0,0,0,0,0,0,0,0,0,0,0,-2.1209,-2.1162,-2.1281,-2.1267,-2.1266,-2.1327,-2.1328,-2.1328,-2.1288,-2.1285,-2.1283,-2.128,-2.1329,-2.1333,-2.1337,-2.1414,0,0,-2.135,-2.1352,0,0,0,0,0,0,0,0,-2.1207,-2.1214,-2.1268,-2.1268,-2.1267,-2.1299,-2.1302,-2.1357,-2.1288,-2.128,-2.1282,-2.1279,-2.1322,-2.1327,-2.1341,-2.1416,-2.1418,-2.1351,-2.1353,-2.1355,-2.1356,0,0,0,0,0,0,0,-2.1203,-2.1212,-2.1299,-2.1269,-2.1269,-2.1259,-2.1263,-2.1313,-2.1315,-2.128,-2.1277,-2.1283,-2.1321,-2.1337,-2.1342,-2.1419,-2.135,-2.1354,-2.1357,-2.1359,-2.156,-2.1563,0,0,0,0,0,0,-2.1201,-2.1209,-2.1298,-2.13,-2.123,-2.1263,-2.1268,-2.1291,-2.1314,-2.1315,-2.1285,-2.1281,-2.1331,-2.1337,-2.1343,-2.1435,-2.1355,-2.1359,-2.1361,-2.1557,-2.1561,-2.1564,0,0,0,0,0,0,-2.1198,-2.1209,-2.1296,-2.1254,-2.1264,-2.1268,-2.1294,-2.1293,-2.1309,-2.1318,-2.1318,-2.1301,-2.1329,-2.1337,-2.1397,-2.1436,-2.1361,-2.1365,-2.1554,-2.1558,-2.1562,-2.1618,0,0,0,0,0,0,-2.1195,-2.1209,-2.1237,-2.1255,-2.1267,-2.1348,-2.1297,-2.1296,-2.1316,-2.1311,-2.1332,-2.1333,-2.1328,-2.1391,-2.1401,-2.144,-2.1368,-2.155,-2.1556,-2.1561,-2.1613,-2.1624,-2.1633,0,0,0,0,0,-2.1191,-2.1251,-2.1239,-2.125,-2.1303,-2.135,-2.1357,-2.1349,-2.132,-2.1349,-2.1355,-2.1333,-2.143,-2.1397,-2.1408,-2.145,-2.1548,-2.1554,-2.156,-2.1608,-2.1621,-2.1633,0,0,0,0,0,0,-2.1238,-2.1253,-2.124,-2.1308,-2.1328,-2.1343,-2.1379,-2.1363,-2.1392,-2.1386,-2.1376,-2.1381,-2.1443,-2.1453,-2.1415,-2.1525,-2.1484,-2.1493,-2.1517,-2.153,-2.1539,-2.1535,-2.1372,0,0,0,0,0,-2.1257,-2.1294,-2.1305,-2.1364,-2.1375,-2.1376,-2.1396,-2.1388,-2.1409,-2.1417,-2.1427,-2.1449,-2.1484,-2.1507,-2.1541,-2.1614,-2.1618,-2.1649,-2.1659,-2.1667,-2.1674,-2.1714,-2.1728,-2.1584,-2.1584,-2.1584,0,0,-2.1295,-2.1308,-2.1332,-2.1374,-2.1388,-2.1427,-2.1383,-2.1426,-2.1455,-2.1424,-2.148,-2.1489,-2.1512,-2.1579,-2.1609,-2.1588,-2.1715,-2.1675,-2.1681,-2.1684,-2.1722,-2.1735,-2.1748,-2.1588,-2.1588,-2.1587,0,0,-2.1384,-2.1398,-2.1448,-2.1464,-2.1487,-2.1487,-2.15,-2.1518,-2.1522,-2.1578,-2.1556,-2.1591,-2.1652,-2.1669,-2.1686,-2.1783,-2.1764,-2.1795,-2.1847,-2.1886,-2.1897,-2.1907,-2.1941,-2.1954,-2.1802,-2.1802,-2.1803,0,-2.1429,-2.1486,-2.1477,-2.1521,-2.154,-2.1514,-2.1566,-2.1582,-2.1614,-2.1629,-2.1605,-2.1682,-2.1696,-2.1766,-2.179,-2.1805,-2.1819,-2.1791,-2.1896,-2.1906,-2.1915,-2.1948,-2.1961,-2.1806,-2.1806,-2.1805,-2.1805,0,-2.154,-2.158,-2.1618,-2.165,-2.1673,-2.1721,-2.172,-2.1745,-2.1736,-2.1739,-2.1797,-2.1813,-2.1848,-2.1865,-2.1856,-2.1935,-2.1921,-2.1898,-2.1856,-2.1933,-2.1963,-2.1975,-2.1811,-2.181,-2.1809,-2.1808,0,0,-2.1659,-2.1685,-2.1699,-2.1714,-2.1737,-2.1768,-2.1816,-2.185,-2.1872,-2.1896,-2.1935,-2.1988,-2.1967,-2.1986,-2.1979,-2.2014,-2.209,-2.1986,-2.1986,-2.2004,-2.2177,-2.2193,-2.2208,-2.2078,-2.208,-2.2082,-2.2174,0,-2.1748,-2.1829,-2.1822,-2.1899,-2.1936,-2.1913,-2.1954,-2.1973,-2.1978,-2.201,-2.2016,-2.2053,-2.2022,-2.2033,-2.2067,-2.2073,-2.2124,-2.2067,-2.2114,-2.2116,-2.2107,-2.2224,-2.2242,-2.2328,-2.2186,-2.2188,-2.219,0,-2.1863,-2.189,-2.1971,-2.1989,-2.2005,-2.2042,-2.2073,-2.2105,-2.2127,-2.2128,-2.215,-2.2138,-2.2186,-2.2144,-2.221,-2.2171,-2.2191,-2.2197,-2.22,-2.2203,-2.2156,-2.2229,-2.2355,-2.2368,-2.2208,-2.2207,-2.2206,0,-2.1941,-2.1998,-2.2053,-2.2067,-2.209,-2.2116,-2.2128,-2.2147,-2.2169,-2.2197,-2.2211,-2.2244,-2.2263,-2.2289,-2.2287,-2.2257,-2.2354,-2.2312,-2.2356,-2.2356,-2.2376,-2.2375,-2.2506,-2.2391,-2.2391,-2.2391,-2.239,0,-2.204,-2.209,-2.2089,-2.2122,-2.2178,-2.2171,-2.2226,-2.2234,-2.2252,-2.2288,-2.227,-2.2304,-2.2299,-2.2334,-2.2333,-2.2387,-2.2396,-2.2398,-2.2397,-2.2399,-2.2399,-2.2411,-2.2404,-2.2394,-2.2393,-2.2393,-2.2392,0,-2.2136,-2.2137,-2.2195,-2.2213,-2.2219,-2.2259,-2.2274,-2.2307,-2.231,-2.2356,-2.2366,-2.2372,-2.2411,-2.2412,-2.2457,-2.2456,-2.2523,-2.2516,-2.2516,-2.2514,-2.2557,-2.2553,-2.27,-2.2719,-2.2592,-2.2594,-2.2595,0,-2.2199,-2.2236,-2.2258,-2.228,-2.2293,-2.233,-2.2351,-2.2346,-2.237,-2.2399,-2.2428,-2.2466,-2.2496,-2.256,-2.2569,-2.2604,-2.2596,-2.2646,-2.2601,-2.2602,-2.2596,-2.2593,-2.2597,-2.2654,-2.2655,-2.2656,-2.2657,0,-2.231,-2.2309,-2.234,-2.2373,-2.24,-2.2425,-2.2449,-2.2468,-2.2466,-2.2494,-2.2534,-2.2557,-2.2604,-2.2642,-2.2676,-2.2688,-2.2672,-2.2672,-2.2683,-2.2685,-2.2683,-2.2684,-2.2538,-2.2668,-2.2667,-2.2666,-2.2665,-2.2665,-2.239,-2.2423,-2.2443,-2.2479,-2.2497,-2.2519,-2.2551,-2.2558,-2.2592,-2.2629,-2.2624,-2.2669,-2.2691,-2.2735,-2.275,-2.2786,-2.2768,-2.2786,-2.279,-2.2794,-2.2798,-2.2679,-2.2792,-2.2792,-2.2791,-2.2791,-2.2791,0,-2.25,-2.2512,-2.2546,-2.2579,-2.2608,-2.2591,-2.2617,-2.2642,-2.2681,-2.2703,-2.2733,-2.278,-2.2817,-2.2829,-2.2865,-2.2891,-2.2885,-2.2901,-2.2898,-2.2901,-2.2812,-2.2798,-2.2905,-2.2905,-2.2905,-2.2905,-2.2905,-2.2905,-2.256,-2.2614,-2.2615,-2.2678,-2.269,-2.2733,-2.2749,-2.2771,-2.2788,-2.284,-2.2871,-2.2879,-2.2897,-2.2934,-2.2968,-2.297,-2.2984,-2.3003,-2.3002,-2.2919,-2.2907,-2.2896,-2.2883,-2.3006,-2.3006,-2.3088,-2.3089,-2.3089]},{"header":{"parameterUnit":"m.s-1","parameterCategory":1,"la1":30.2991,"la2":30.254,"lo1":-89.0895,"lo2":-89.0444,"dy":0.0017,"dx":0.0017,"nx":28,"ny":28,"refTime":"2025-12-12T09:00:00:Z","depth":0,"parameterNumber":3,"parameterNumberName":"V-component_of_WINDS"},"data":[0,0,0,0,0,0,0,0,0,0,0,0,0,0,0,0,0,0,0,0,0,0,0,0,0,0,0,0,0,0,0,0,0,0,0,0,0,0,0,0,0,0,0,0,0,0,0,0,0,0,0,0,0,0,0,0,0,0,1.3268,1.3269,0,1.3299,1.33,1.33,1.3296,1.3296,1.3295,1.3295,1.3323,1.3325,1.3326,0,0,0,0,0,0,0,0,0,0,0,0,0,1.3204,1.3206,1.3268,1.3269,1.3269,1.3299,1.33,1.33,1.3296,1.3296,1.3295,1.3294,1.3323,1.3325,1.3326,0,0,0,0,0,0,0,0,0,0,0,0,0,1.3233,1.3206,1.3268,1.3271,1.3271,1.3299,1.33,1.33,1.3296,1.3296,1.3295,1.3294,1.3323,1.3324,1.3326,1.3353,0,0,1.3332,1.3333,0,0,0,0,0,0,0,0,1.3232,1.3236,1.327,1.3271,1.3271,1.3293,1.3288,1.3318,1.3296,1.3287,1.3295,1.3294,1.3314,1.3316,1.3324,1.3354,1.3355,1.3332,1.3333,1.3334,1.3334,0,0,0,0,0,0,0,1.323,1.3234,1.3281,1.3271,1.3271,1.327,1.3273,1.3293,1.3304,1.3288,1.3287,1.3291,1.3314,1.3322,1.3324,1.3356,1.3332,1.3334,1.3335,1.3335,1.3411,1.3412,0,0,0,0,0,0,1.3227,1.3233,1.328,1.3281,1.3249,1.3272,1.3275,1.3287,1.3304,1.3306,1.3292,1.3291,1.3319,1.3322,1.3325,1.3359,1.3334,1.3336,1.3337,1.341,1.3411,1.3412,0,0,0,0,0,0,1.3226,1.3232,1.3278,1.3257,1.3263,1.3274,1.3287,1.3288,1.3296,1.3307,1.3309,1.3298,1.3319,1.3323,1.3346,1.336,1.3336,1.3338,1.3409,1.341,1.3412,1.3425,0,0,0,0,0,0,1.3224,1.3231,1.3241,1.3257,1.3264,1.3299,1.3287,1.3289,1.3299,1.3298,1.3313,1.3315,1.3318,1.3344,1.3348,1.3362,1.334,1.3408,1.341,1.3411,1.3423,1.3426,1.3429,0,0,0,0,0,1.3222,1.3243,1.3242,1.3248,1.3277,1.33,1.3304,1.3308,1.33,1.3311,1.3318,1.3315,1.3357,1.3346,1.3351,1.3365,1.3407,1.3409,1.3411,1.3422,1.3426,1.3429,0,0,0,0,0,0,1.3226,1.3245,1.3244,1.3271,1.3284,1.3299,1.3313,1.3312,1.3327,1.3325,1.3329,1.3332,1.3357,1.3363,1.335,1.3393,1.3381,1.3384,1.3388,1.3391,1.3394,1.3392,1.3341,0,0,0,0,0,1.3231,1.3249,1.3263,1.3285,1.3292,1.3302,1.3311,1.3314,1.3327,1.3332,1.3342,1.3354,1.3371,1.3381,1.3397,1.3424,1.3428,1.3436,1.3439,1.3442,1.3445,1.3461,1.3465,1.3419,1.3419,1.3419,0,0,1.3239,1.3252,1.3262,1.3287,1.3297,1.3315,1.3306,1.3325,1.3338,1.3335,1.3359,1.3366,1.338,1.3407,1.3418,1.3413,1.3458,1.3444,1.3446,1.3448,1.3464,1.3468,1.3472,1.342,1.342,1.342,0,0,1.3265,1.3276,1.3296,1.3308,1.3324,1.3331,1.3336,1.3352,1.3357,1.3381,1.3379,1.3395,1.3423,1.3434,1.3443,1.3475,1.3472,1.348,1.3495,1.3511,1.3515,1.3518,1.3531,1.3535,1.3482,1.3482,1.3482,0,1.3273,1.3301,1.3307,1.3327,1.3338,1.3337,1.3359,1.3369,1.3389,1.3397,1.3391,1.3427,1.3436,1.3466,1.3474,1.3481,1.3487,1.3478,1.3514,1.3517,1.3521,1.3533,1.3537,1.3483,1.3483,1.3483,1.3483,0,1.3311,1.3331,1.3345,1.3367,1.338,1.34,1.3409,1.3421,1.3423,1.343,1.3455,1.3467,1.3485,1.3492,1.3493,1.3523,1.3519,1.3513,1.3502,1.3526,1.3537,1.3542,1.3484,1.3484,1.3484,1.3484,0,0,1.3339,1.3366,1.3371,1.3382,1.3401,1.3416,1.3437,1.3457,1.3468,1.3482,1.35,1.3525,1.352,1.3531,1.3533,1.3547,1.3573,1.354,1.354,1.3547,1.3608,1.3613,1.3618,1.3572,1.3573,1.3573,1.3607,0,1.3367,1.3405,1.3412,1.3445,1.3464,1.3464,1.3482,1.3496,1.3504,1.352,1.3528,1.3546,1.3538,1.3545,1.3559,1.3567,1.3586,1.3565,1.3589,1.3589,1.3586,1.3624,1.3628,1.3659,1.3611,1.3612,1.3613,0,1.3405,1.3423,1.3458,1.3477,1.3485,1.3502,1.3521,1.3537,1.3553,1.3558,1.3571,1.3572,1.3593,1.3581,1.3611,1.3597,1.3607,1.3613,1.3614,1.3617,1.3603,1.3628,1.3669,1.3674,1.362,1.3619,1.3618,0,1.3423,1.3456,1.3482,1.3491,1.3513,1.3525,1.3535,1.355,1.3562,1.3579,1.3587,1.3606,1.3616,1.3631,1.3637,1.3627,1.3667,1.3655,1.3672,1.3672,1.3681,1.368,1.3725,1.3686,1.3686,1.3686,1.3686,0,1.3454,1.3476,1.3491,1.3507,1.3532,1.3539,1.3563,1.3573,1.3587,1.3605,1.3605,1.3622,1.3629,1.3647,1.3652,1.3677,1.3681,1.3686,1.3687,1.3686,1.3686,1.3693,1.3691,1.3687,1.3687,1.3686,1.3686,0,1.3479,1.3489,1.3518,1.3538,1.3543,1.3561,1.3578,1.3593,1.3601,1.3624,1.363,1.3642,1.3663,1.3671,1.3696,1.3699,1.3729,1.3728,1.3724,1.3725,1.3742,1.374,1.3793,1.3801,1.3756,1.3756,1.3757,0,1.3498,1.3516,1.3538,1.3551,1.3562,1.3582,1.3595,1.3603,1.3617,1.3637,1.3651,1.3672,1.369,1.3723,1.3734,1.3754,1.3754,1.3771,1.3757,1.3756,1.3755,1.3755,1.3757,1.3774,1.3774,1.3775,1.3775,0,1.3532,1.3537,1.3557,1.3579,1.3595,1.3612,1.3629,1.3639,1.365,1.3665,1.3688,1.3701,1.3728,1.375,1.3771,1.378,1.378,1.3779,1.3785,1.3784,1.3782,1.3785,1.3732,1.3778,1.3778,1.3778,1.3777,1.3777,1.3556,1.3572,1.3591,1.3613,1.3627,1.3643,1.366,1.3671,1.369,1.3714,1.3717,1.3742,1.3759,1.3787,1.3797,1.3816,1.3811,1.3819,1.3821,1.3822,1.3824,1.3779,1.382,1.382,1.3819,1.3819,1.3819,0,1.3591,1.3603,1.3624,1.3649,1.3666,1.3666,1.3685,1.37,1.3722,1.3738,1.3756,1.3783,1.3804,1.3818,1.3839,1.3852,1.3852,1.3857,1.3857,1.3859,1.3827,1.3821,1.3857,1.3857,1.3857,1.3857,1.3857,1.3857,1.3611,1.3639,1.3647,1.3682,1.3694,1.372,1.3731,1.3746,1.376,1.379,1.3808,1.3817,1.3833,1.3856,1.3876,1.3879,1.3887,1.3893,1.3896,1.3865,1.3861,1.3858,1.3852,1.3894,1.3894,1.3927,1.3928,1.3928]}]]